Location: Baix
(44.7118°N, 4.7648°E)
Time: 03:35:57
(UTC+00:00)

Cosmos 1680 Rocket - Pass Details

Date: 07 August 2020
Orbit: 760 x 781 km, 74.1° (Epoch: 27 September)

Event Time Altitude Azimuth Distance (km) Brightness Sun altitude
Rises 02:11:00 0° 338° (NNW) 3,243 7.2 -20.7°
Reaches altitude 10° 02:13:23 10° 338° (NNW) 2,310 6.4 -20.5°
Maximum altitude 02:18:38 87° 250° (WSW) 769 3.4 -19.9°
Enters shadow 02:22:41 17° 162° (SSE) 1,849 5.2 -19.4°
